SCP
0 0 0 0 0 0 0 0 0 0 0 0 0 0 0 0 0 0 0 0 0 0 0 0 0 0 0 0 0 0 0 0 0 0 0 0 0 0 0 0 0 0 0
0 0 0 0 0 0 0 0 0 0 0 0 0 0 0 0 0 0 0 0 0 0 0 0 0 0 0 0 0 0 0 0 0 0 0 0 0 0 0 0 0 0 0
0 0 0 0 0 0 0 0 0 0 0 0 0 0 0 0 0 0 0 0 0 0 0 0 0 0 0 0 0 0 0 0 0 0 0 0 0 0 0 0 0 0 0
0 0 0 0 0 0 0 0 0 0 0 0 0 0 0 0 0 0 0 0 0 0 0 0 0 0 0 0 0 0 0 0 0 0 0 0 0 0 0 0 0 0 0
0 0 0 0 0 0 0 0 0 0 0 0 0 0 0 0 0 0 0 0 0 0 0 0 0 0 0 0 0 0 0 0 0 0 0 0 0 0 0 0 0 0 0
0 0 0 0 0 0 0 0 0 0 0 0 0 0 0 0 0 0 0 0 0 0 0 0 0 0 0 0 0 0 0 0 0 0 0 0 0 0 0 0 0 0 0
0 0 0 0 0 0 0 0 0 0 0 0 0 0 0 0 0 0 0 0 0 0 0 0 0 0 0 0 0 0 0 0 0 0 0 0 0 0 0 0 0 0 0
0 0 0 0 0 0 0 0 0 0 0 0 0 0 0 0 0 0 0 0 0 0 0 0 0 0 0 0 0 0 0 0 0 0 0 0 0 0 0 0 0 0 0
0 0 0 0 0 0 0 0 0 0 0 0 0 0 0 0 0 0 0 0 0 0 0 0 0 0 0 0 0 0 0 0 0 0 0 0 0 0 0 0 0 0 0
0 0 0 0 0 0 0 0 0 0 0 0 0 0 0 0 0 0 0 0 0 0 0 0 0 0 0 0 0 0 0 0 0 0 0 -0 0 0 0 0 0 0 0
0 0 0 0 0 0 0 0 0 0 0 0 0 0 0 0 0 0 0 0 0 0 0 0 0 0 0 0 0 0 0 0 -0 0 0 0 -0 -0 0 0 0 0 0
0 0 0 0 0 0 0 0 0 0 0 0 0 0 0 0 0 0 0 0 0 0 0 0 0 0 0 0 0 -0 -0 -0 -0 -0 0 0 0 -0 0 0 0 0 0
0 0 0 0 0 0 0 0 0 0 0 0 0 0 0 0 0 0 0 0 0 0 0 0 0 0 0 0 0 -0 -0 -0 -0 -0 -0 -0 -0 0 -0 0 0 0 0
0 0 0 0 0 0 0 0 0 0 0 0 0 0 0 0 0 0 0 0 0 0 0 0 0 0 0 0 0 -0 -0 -0 -0 -0 -0 -0 -0 -0 0 0 0 1 0
0 0 0 0 0 0 0 0 0 0 0 0 0 0 0 0 0 0 0 0 0 0 0 0 0 0 0 -0 0 -0 -0 -0 -0 -0 0 -0 -0 0 -0 0 0 0 0
0 0 0 0 0 0 0 0 0 0 0 0 0 0 0 0 0 0 0 0 0 0 0 0 0 0 -0 -0 -0 -0 -0 0 -0 -0 0 0 0 -0 0 0 0 0 0
0 0 0 0 0 0 0 0 0 0 0 0 0 0 0 0 0 0 0 0 0 0 0 0 0 -0 -0 -0 -0 -0 0 0 0 -0 0 0 0 0 0 0 0 0 0
0 0 0 0 0 0 0 0 0 0 0 0 0 0 0 0 0 0 0 0 0 0 0 0 0 -0 -0 -0 -0 -0 0 0 0 0 -0 0 0 0 0 0 0 0 0
0 0 0 0 0 0 0 0 0 0 0 0 0 0 0 0 0 0 0 0 0 0 0 0 0 -0 -0 -0 -0 -0 0 0 0 -0 -0 -0 0 0 0 0 0 0 0
0 0 0 0 0 0 0 0 0 0 0 0 0 0 0 0 0 0 0 0 0 0 0 0 0 -0 -0 -0 -0 0 0 0 0 0 0 0 0 0 0 0 0 0 0
0 0 0 0 0 0 0 0 0 0 0 0 0 0 0 0 0 0 0 0 0 0 0 0 0 0 -0 0 0 0 0 0 0 0 0 0 0 0 0 0 0 0 0
0 0 0 0 0 0 0 0 0 0 0 0 0 0 0 0 0 0 0 0 0 0 0 0 0 0 0 0 -0 -0 0 0 0 0 0 0 0 0 0 0 0 0 0
0 0 0 0 0 0 0 0 0 0 0 0 0 0 0 0 0 0 0 0 0 0 0 0 0 0 0 0 0 0 0 -0 0 0 0 0 0 0 0 0 0 0 0
0 0 0 0 0 0 0 0 0 0 0 0 0 0 0 0 0 0 0 0 0 0 0 0 0 0 0 0 0 0 0 -0 -0 0 0 0 0 0 0 0 0 0 0
0 0 0 0 0 0 0 0 0 0 0 0 0 0 0 0 0 -0 0 0 -0 0 0 0 0 0 0 0 0 0 0 0 0 0 0 0 -0 -0 -0 0 0 0 0
0 0 0 0 0 0 0 0 0 0 0 0 0 0 0 0 0 -0 0 0 0 0 0 0 0 0 0 0 0 0 0 0 0 0 0 0 0 0 0 -0 -0 0 0
Wind_Speed_500mb
23 23 27 29 33 39 41 38 35 33 30 26 24 26 23 22 22 23 27 23 22 27 26 26 33 39 41 43 46 48 49 50 50 51 53 57 54 52 58 75 71 75 70
25 25 26 27 30 35 38 41 47 36 34 33 31 31 28 23 21 21 26 24 22 30 32 33 34 40 45 49 49 56 58 55 56 53 55 57 61 60 58 59 62 78 68
22 23 25 26 29 32 35 40 47 42 37 38 38 36 32 28 24 19 20 20 25 33 39 38 41 44 48 50 57 52 51 53 55 60 62 62 63 63 63 63 64 63 66
22 23 24 24 26 30 33 38 45 49 44 49 46 44 35 24 18 24 19 24 29 30 38 45 49 48 52 50 46 49 51 53 58 62 64 68 70 67 69 69 64 67 65
20 20 21 23 26 29 31 35 38 41 42 47 49 45 33 21 24 25 23 29 30 36 40 44 48 53 52 44 44 47 50 54 60 66 69 69 72 77 73 75 74 68 72
17 19 20 23 27 28 30 34 37 38 41 46 45 43 27 20 36 30 23 26 26 34 37 43 45 47 40 41 44 45 47 54 59 65 72 74 75 77 77 76 77 73 73
17 18 22 27 29 30 32 33 33 37 41 48 55 52 34 31 55 39 44 30 30 33 34 39 40 38 39 45 55 55 55 55 63 66 69 74 79 79 82 83 78 85 76
17 19 22 26 29 31 28 27 28 35 39 40 52 48 41 39 72 45 51 47 38 32 34 36 35 42 47 47 53 58 59 53 68 70 67 75 82 86 85 86 89 82 83
15 18 20 24 28 30 31 29 26 28 36 36 37 32 22 22 76 60 56 51 48 38 36 39 38 42 48 49 51 57 66 62 75 70 74 76 88 89 90 89 88 91 84
16 18 20 25 29 30 27 26 27 25 29 34 36 32 25 38 48 44 68 61 55 50 39 36 40 46 52 55 44 48 57 67 79 67 72 73 96 93 89 87 88 89 87
18 20 21 25 28 28 26 24 28 28 28 32 33 36 32 38 40 49 59 73 63 55 46 34 43 49 51 54 50 56 56 70 63 46 68 55 45 80 79 76 79 80 77
18 21 21 24 27 28 28 26 25 28 27 28 30 33 33 35 42 44 52 61 53 63 49 40 56 44 50 55 50 51 56 66 59 57 39 46 22 51 65 67 71 76 80
19 20 21 22 25 27 28 28 25 26 27 27 30 34 33 29 34 41 49 51 53 52 44 47 47 38 46 49 49 49 50 44 62 64 45 32 56 17 44 48 58 77 78
20 22 22 23 24 26 28 28 27 25 25 25 27 31 35 31 29 34 42 49 52 42 47 39 47 39 42 45 43 49 40 37 61 57 55 37 29 65 41 41 17 64 36
22 23 23 23 24 26 28 29 29 25 24 26 27 30 35 34 30 31 37 35 40 47 54 45 49 49 35 39 42 45 38 30 42 50 50 60 41 53 69 57 38 41 34
25 25 23 25 24 26 28 31 30 21 22 22 29 31 34 34 28 29 35 31 38 43 37 50 39 36 39 40 39 42 37 30 25 37 35 41 54 47 43 48 41 55 64
27 27 25 26 26 26 28 30 30 24 25 28 31 31 34 31 29 27 27 33 40 43 45 47 42 38 38 45 42 38 35 26 22 26 28 32 38 43 42 45 46 36 40
29 29 27 29 28 26 28 31 30 23 26 32 31 31 31 32 30 23 27 34 38 40 44 47 46 38 38 40 38 32 25 23 21 19 20 20 28 27 29 32 34 32 25
31 31 30 31 29 27 28 31 30 27 27 30 30 30 29 31 30 22 29 35 38 36 38 41 45 38 35 39 39 21 17 14 16 13 12 15 10 17 18 23 22 15 20
34 33 33 32 32 29 28 31 32 29 26 28 26 26 26 29 27 21 28 33 38 39 37 38 42 42 32 34 38 34 21 13 17 14 7 9 14 13 14 12 12 17 14
35 35 35 33 33 31 28 31 33 34 29 27 23 25 24 27 25 21 22 25 32 34 34 36 41 37 33 34 38 39 32 21 13 24 17 6 5 10 13 11 7 5 8
39 38 37 36 35 32 30 31 33 35 32 30 28 23 22 25 26 21 22 20 23 25 31 32 32 33 32 31 28 29 29 34 28 20 18 19 4 1 5 12 13 6 3
42 41 39 38 35 34 31 31 33 35 34 31 29 26 23 23 23 21 25 25 23 17 21 22 25 31 32 29 31 24 25 23 19 24 17 23 19 12 4 4 13 9 3
47 43 41 39 38 34 32 32 33 36 34 31 29 27 24 21 20 21 24 25 19 17 19 15 18 19 28 26 31 25 25 15 12 17 19 22 18 18 7 11 12 11 11
49 46 42 40 41 35 33 32 32 36 33 29 27 27 26 22 19 18 23 22 19 18 16 12 12 12 20 22 28 33 35 23 9 11 24 14 14 8 9 10 13 14 14
50 47 46 43 41 38 33 33 30 32 30 28 24 26 25 23 19 20 23 21 19 15 11 11 12 13 15 18 21 23 29 37 33 13 23 16 18 7 3 8 14 15 13
Wind_Direction_500mb
12 9 6 10 9 8 13 10 2 357 355 349 347 347 343 341 328 327 321 310 305 321 321 314 312 310 309 306 301 298 296 292 282 281 279 276 268 267 260 253 250 250 243
11 8 3 5 6 7 8 8 4 357 353 347 346 341 338 337 330 323 326 328 314 311 315 317 311 310 309 304 298 297 294 286 286 279 276 275 272 265 261 261 260 248 253
10 9 1 1 4 5 7 8 9 4 356 352 351 348 346 338 328 311 322 329 318 319 320 313 318 312 311 303 302 299 297 289 284 279 277 274 266 265 263 259 259 246 246
5 4 1 1 4 3 8 8 5 4 6 2 0 360 353 346 333 324 304 323 325 313 318 312 312 315 312 310 306 303 300 293 283 280 276 272 269 266 257 256 258 256 249
359 0 1 2 2 359 0 1 5 2 358 358 359 3 357 341 335 331 316 318 320 307 311 315 314 314 311 315 313 307 303 298 289 283 277 273 267 264 261 252 253 254 250
352 357 1 1 358 353 353 354 356 3 5 357 359 1 2 13 3 340 339 331 330 330 325 320 322 322 326 327 325 316 309 304 298 288 280 273 268 262 259 255 247 250 249
345 349 0 3 357 352 351 347 350 359 5 1 356 358 8 360 2 9 2 344 340 340 338 333 335 334 323 319 320 311 313 308 304 291 281 272 265 260 256 253 250 243 248
337 349 352 357 352 355 351 351 0 359 5 9 355 359 349 357 346 358 3 5 357 352 351 344 347 351 338 316 316 324 316 306 307 301 283 272 263 257 252 248 246 245 244
330 339 343 346 348 349 358 5 359 355 355 8 7 8 344 327 334 339 352 359 0 356 356 353 354 353 351 339 318 320 326 310 308 297 292 281 262 253 247 243 240 240 237
321 324 334 338 343 342 348 1 355 345 344 355 358 359 346 334 336 331 335 346 350 357 360 0 359 356 355 351 338 326 330 326 311 295 293 281 266 246 239 239 238 237 238
313 316 325 329 332 335 334 339 356 347 346 342 349 348 344 337 345 337 329 338 346 351 5 9 3 358 356 355 353 348 334 346 323 315 301 333 282 225 231 236 236 233 235
305 307 318 322 325 330 331 330 331 342 332 335 339 340 340 339 338 337 332 331 328 341 343 357 358 352 356 359 358 348 349 350 357 316 342 15 25 214 229 237 236 237 230
298 301 311 314 318 323 325 327 330 329 331 328 334 337 338 336 333 327 330 334 329 335 336 350 0 351 354 1 359 347 4 4 4 10 27 15 47 65 227 230 229 227 231
290 294 305 311 314 319 320 321 329 328 333 320 331 340 333 330 324 327 333 335 331 330 337 335 354 349 351 357 353 355 356 16 15 23 23 36 50 44 41 95 82 136 150
285 288 298 305 309 312 318 319 325 331 336 326 322 328 334 326 318 322 331 333 336 330 333 338 344 349 351 352 353 350 359 5 26 18 27 34 34 54 53 62 85 96 150
278 281 293 300 305 309 313 316 321 325 329 327 317 318 329 325 319 319 334 331 343 336 325 338 340 335 343 337 340 339 340 351 5 28 31 39 32 29 54 55 54 68 75
274 279 289 294 299 303 307 312 317 319 315 316 316 315 325 323 321 322 328 338 343 341 333 340 338 333 331 329 326 333 339 335 353 7 25 46 38 32 23 39 55 55 45
269 277 284 290 294 299 303 306 312 313 314 314 311 311 323 325 324 321 329 335 339 341 337 339 344 345 344 348 344 328 335 335 342 8 18 37 45 45 56 35 36 57 52
269 274 281 286 290 294 298 302 307 311 316 315 304 306 319 327 328 328 329 332 334 340 339 339 345 348 348 344 349 347 344 343 348 354 354 19 33 35 57 74 75 55 59
266 273 278 282 286 289 294 298 302 307 312 312 298 302 318 329 321 325 323 327 326 333 339 340 342 343 340 346 358 2 15 24 35 13 359 332 2 6 28 43 65 90 101
264 270 274 278 282 286 290 293 298 304 309 311 302 300 316 329 316 302 303 324 323 329 333 338 344 355 3 358 1 1 4 17 21 32 38 3 301 336 352 2 13 32 81
261 266 272 276 278 282 286 289 293 296 303 308 304 300 312 326 317 305 309 307 298 321 324 333 350 4 10 6 4 10 13 10 7 9 41 46 81 266 5 354 0 346 266
261 263 268 273 278 280 283 286 290 289 295 302 298 299 302 320 316 305 316 325 322 304 329 328 352 358 360 2 4 13 10 12 14 14 19 44 69 106 79 21 341 356 290
259 263 266 271 275 279 280 283 286 283 291 296 294 293 290 308 314 310 321 328 326 320 327 334 341 358 2 5 7 14 6 26 39 21 33 55 91 103 186 287 327 358 346
258 262 266 268 273 277 278 280 280 282 286 292 288 282 286 291 307 311 314 323 326 324 322 321 340 333 347 1 19 26 18 19 42 21 32 55 55 96 95 54 34 19 15
259 261 262 266 270 275 275 277 274 279 285 289 287 280 279 280 292 305 308 316 327 331 331 321 327 334 349 355 5 19 25 33 34 33 17 25 21 63 179 14 45 29 13
Wind_Speed_850mb
23 23 27 29 33 39 41 38 35 33 30 26 24 26 23 22 22 23 27 23 22 27 26 26 33 39 41 43 46 48 49 50 50 51 53 57 54 52 58 75 71 75 70
25 25 26 27 30 35 38 41 47 36 34 33 31 31 28 23 21 21 26 24 22 30 32 33 34 40 45 49 49 56 58 55 56 53 55 57 61 60 58 59 62 78 68
22 23 25 26 29 32 35 40 47 42 37 38 38 36 32 28 24 19 20 20 25 33 39 38 41 44 48 50 57 52 51 53 55 60 62 62 63 63 63 63 64 63 66
22 23 24 24 26 30 33 38 45 49 44 49 46 44 35 24 18 24 19 24 29 30 38 45 49 48 52 50 46 49 51 53 58 62 64 68 70 67 69 69 64 67 65
20 20 21 23 26 29 31 35 38 41 42 47 49 45 33 21 24 25 23 29 30 36 40 44 48 53 52 44 44 47 50 54 60 66 69 69 72 77 73 75 74 68 72
17 19 20 23 27 28 30 34 37 38 41 46 45 43 27 20 36 30 23 26 26 34 37 43 45 47 40 41 44 45 47 54 59 65 72 74 75 77 77 76 77 73 73
17 18 22 27 29 30 32 33 33 37 41 48 55 52 34 31 55 39 44 30 30 33 34 39 40 38 39 45 55 55 55 55 63 66 69 74 79 79 82 83 78 85 76
17 19 22 26 29 31 28 27 28 35 39 40 52 48 41 39 72 45 51 47 38 32 34 36 35 42 47 47 53 58 59 53 68 70 67 75 82 86 85 86 89 82 83
15 18 20 24 28 30 31 29 26 28 36 36 37 32 22 22 76 60 56 51 48 38 36 39 38 42 48 49 51 57 66 62 75 70 74 76 88 89 90 89 88 91 84
16 18 20 25 29 30 27 26 27 25 29 34 36 32 25 38 48 44 68 61 55 50 39 36 40 46 52 55 44 48 57 67 79 67 72 73 96 93 89 87 88 89 87
18 20 21 25 28 28 26 24 28 28 28 32 33 36 32 38 40 49 59 73 63 55 46 34 43 49 51 54 50 56 56 70 63 46 68 55 45 80 79 76 79 80 77
18 21 21 24 27 28 28 26 25 28 27 28 30 33 33 35 42 44 52 61 53 63 49 40 56 44 50 55 50 51 56 66 59 57 39 46 22 51 65 67 71 76 80
19 20 21 22 25 27 28 28 25 26 27 27 30 34 33 29 34 41 49 51 53 52 44 47 47 38 46 49 49 49 50 44 62 64 45 32 56 17 44 48 58 77 78
20 22 22 23 24 26 28 28 27 25 25 25 27 31 35 31 29 34 42 49 52 42 47 39 47 39 42 45 43 49 40 37 61 57 55 37 29 65 41 41 17 64 36
22 23 23 23 24 26 28 29 29 25 24 26 27 30 35 34 30 31 37 35 40 47 54 45 49 49 35 39 42 45 38 30 42 50 50 60 41 53 69 57 38 41 34
25 25 23 25 24 26 28 31 30 21 22 22 29 31 34 34 28 29 35 31 38 43 37 50 39 36 39 40 39 42 37 30 25 37 35 41 54 47 43 48 41 55 64
27 27 25 26 26 26 28 30 30 24 25 28 31 31 34 31 29 27 27 33 40 43 45 47 42 38 38 45 42 38 35 26 22 26 28 32 38 43 42 45 46 36 40
29 29 27 29 28 26 28 31 30 23 26 32 31 31 31 32 30 23 27 34 38 40 44 47 46 38 38 40 38 32 25 23 21 19 20 20 28 27 29 32 34 32 25
31 31 30 31 29 27 28 31 30 27 27 30 30 30 29 31 30 22 29 35 38 36 38 41 45 38 35 39 39 21 17 14 16 13 12 15 10 17 18 23 22 15 20
34 33 33 32 32 29 28 31 32 29 26 28 26 26 26 29 27 21 28 33 38 39 37 38 42 42 32 34 38 34 21 13 17 14 7 9 14 13 14 12 12 17 14
35 35 35 33 33 31 28 31 33 34 29 27 23 25 24 27 25 21 22 25 32 34 34 36 41 37 33 34 38 39 32 21 13 24 17 6 5 10 13 11 7 5 8
39 38 37 36 35 32 30 31 33 35 32 30 28 23 22 25 26 21 22 20 23 25 31 32 32 33 32 31 28 29 29 34 28 20 18 19 4 1 5 12 13 6 3
42 41 39 38 35 34 31 31 33 35 34 31 29 26 23 23 23 21 25 25 23 17 21 22 25 31 32 29 31 24 25 23 19 24 17 23 19 12 4 4 13 9 3
47 43 41 39 38 34 32 32 33 36 34 31 29 27 24 21 20 21 24 25 19 17 19 15 18 19 28 26 31 25 25 15 12 17 19 22 18 18 7 11 12 11 11
49 46 42 40 41 35 33 32 32 36 33 29 27 27 26 22 19 18 23 22 19 18 16 12 12 12 20 22 28 33 35 23 9 11 24 14 14 8 9 10 13 14 14
50 47 46 43 41 38 33 33 30 32 30 28 24 26 25 23 19 20 23 21 19 15 11 11 12 13 15 18 21 23 29 37 33 13 23 16 18 7 3 8 14 15 13
Wind_Direction_850mb
12 9 6 10 9 8 13 10 2 357 355 349 347 347 343 341 328 327 321 310 305 321 321 314 312 310 309 306 301 298 296 292 282 281 279 276 268 267 260 253 250 250 243
11 8 3 5 6 7 8 8 4 357 353 347 346 341 338 337 330 323 326 328 314 311 315 317 311 310 309 304 298 297 294 286 286 279 276 275 272 265 261 261 260 248 253
10 9 1 1 4 5 7 8 9 4 356 352 351 348 346 338 328 311 322 329 318 319 320 313 318 312 311 303 302 299 297 289 284 279 277 274 266 265 263 259 259 246 246
5 4 1 1 4 3 8 8 5 4 6 2 0 360 353 346 333 324 304 323 325 313 318 312 312 315 312 310 306 303 300 293 283 280 276 272 269 266 257 256 258 256 249
359 0 1 2 2 359 0 1 5 2 358 358 359 3 357 341 335 331 316 318 320 307 311 315 314 314 311 315 313 307 303 298 289 283 277 273 267 264 261 252 253 254 250
352 357 1 1 358 353 353 354 356 3 5 357 359 1 2 13 3 340 339 331 330 330 325 320 322 322 326 327 325 316 309 304 298 288 280 273 268 262 259 255 247 250 249
345 349 0 3 357 352 351 347 350 359 5 1 356 358 8 360 2 9 2 344 340 340 338 333 335 334 323 319 320 311 313 308 304 291 281 272 265 260 256 253 250 243 248
337 349 352 357 352 355 351 351 0 359 5 9 355 359 349 357 346 358 3 5 357 352 351 344 347 351 338 316 316 324 316 306 307 301 283 272 263 257 252 248 246 245 244
330 339 343 346 348 349 358 5 359 355 355 8 7 8 344 327 334 339 352 359 0 356 356 353 354 353 351 339 318 320 326 310 308 297 292 281 262 253 247 243 240 240 237
321 324 334 338 343 342 348 1 355 345 344 355 358 359 346 334 336 331 335 346 350 357 360 0 359 356 355 351 338 326 330 326 311 295 293 281 266 246 239 239 238 237 238
313 316 325 329 332 335 334 339 356 347 346 342 349 348 344 337 345 337 329 338 346 351 5 9 3 358 356 355 353 348 334 346 323 315 301 333 282 225 231 236 236 233 235
305 307 318 322 325 330 331 330 331 342 332 335 339 340 340 339 338 337 332 331 328 341 343 357 358 352 356 359 358 348 349 350 357 316 342 15 25 214 229 237 236 237 230
298 301 311 314 318 323 325 327 330 329 331 328 334 337 338 336 333 327 330 334 329 335 336 350 0 351 354 1 359 347 4 4 4 10 27 15 47 65 227 230 229 227 231
290 294 305 311 314 319 320 321 329 328 333 320 331 340 333 330 324 327 333 335 331 330 337 335 354 349 351 357 353 355 356 16 15 23 23 36 50 44 41 95 82 136 150
285 288 298 305 309 312 318 319 325 331 336 326 322 328 334 326 318 322 331 333 336 330 333 338 344 349 351 352 353 350 359 5 26 18 27 34 34 54 53 62 85 96 150
278 281 293 300 305 309 313 316 321 325 329 327 317 318 329 325 319 319 334 331 343 336 325 338 340 335 343 337 340 339 340 351 5 28 31 39 32 29 54 55 54 68 75
274 279 289 294 299 303 307 312 317 319 315 316 316 315 325 323 321 322 328 338 343 341 333 340 338 333 331 329 326 333 339 335 353 7 25 46 38 32 23 39 55 55 45
269 277 284 290 294 299 303 306 312 313 314 314 311 311 323 325 324 321 329 335 339 341 337 339 344 345 344 348 344 328 335 335 342 8 18 37 45 45 56 35 36 57 52
269 274 281 286 290 294 298 302 307 311 316 315 304 306 319 327 328 328 329 332 334 340 339 339 345 348 348 344 349 347 344 343 348 354 354 19 33 35 57 74 75 55 59
266 273 278 282 286 289 294 298 302 307 312 312 298 302 318 329 321 325 323 327 326 333 339 340 342 343 340 346 358 2 15 24 35 13 359 332 2 6 28 43 65 90 101
264 270 274 278 282 286 290 293 298 304 309 311 302 300 316 329 316 302 303 324 323 329 333 338 344 355 3 358 1 1 4 17 21 32 38 3 301 336 352 2 13 32 81
261 266 272 276 278 282 286 289 293 296 303 308 304 300 312 326 317 305 309 307 298 321 324 333 350 4 10 6 4 10 13 10 7 9 41 46 81 266 5 354 0 346 266
261 263 268 273 278 280 283 286 290 289 295 302 298 299 302 320 316 305 316 325 322 304 329 328 352 358 360 2 4 13 10 12 14 14 19 44 69 106 79 21 341 356 290
259 263 266 271 275 279 280 283 286 283 291 296 294 293 290 308 314 310 321 328 326 320 327 334 341 358 2 5 7 14 6 26 39 21 33 55 91 103 186 287 327 358 346
258 262 266 268 273 277 278 280 280 282 286 292 288 282 286 291 307 311 314 323 326 324 322 321 340 333 347 1 19 26 18 19 42 21 32 55 55 96 95 54 34 19 15
259 261 262 266 270 275 275 277 274 279 285 289 287 280 279 280 292 305 308 316 327 331 331 321 327 334 349 355 5 19 25 33 34 33 17 25 21 63 179 14 45 29 13